WFO RAH Logo

WFO RAH Text Data



RWRRAH
NORTH CAROLINA WEATHER ROUNDUP
NATIONAL WEATHER SERVICE RALEIGH NC
800 PM EST WED JAN 31 2007

NOTE: "FAIR" INDICATES FEW OR NO CLOUDS BELOW 12,000 FEET WITH NO
SIGNIFICANT WEATHER AND/OR OBSTRUCTIONS TO VISIBILITY.

NCZ001-053-055-056-065-067-010200-
WESTERN NORTH CAROLINA
  
CITY           SKY/WX    TMP DP  RH WIND       PRES   REMARKS
ASHEVILLE      CLOUDY    31   5  33 S10       30.07S WCI  22          
JEFFERSON      CLEAR     23   3  42 S6        29.99F WCI  16          
MORGANTON      CLEAR     28   7  40 SE3       30.16S                  
HICKORY        PTCLDY    31   8  38 CALM      30.12S                  
RUTHERFORDTON  CLOUDY    36   7  30 SE3       30.13S                  
MOUNT AIRY     CLOUDY    28   3  34 CALM      30.10S                  
$$
 
NCZ021-022-025-041-071-084-088-010200-
CENTRAL NORTH CAROLINA
  
CITY           SKY/WX    TMP DP  RH WIND       PRES   REMARKS
CHARLOTTE      MOCLDY    32   9  38 S7        30.17R WCI  26          
GREENSBORO     CLOUDY    31   6  35 S5        30.15R WCI  26          
WINSTON-SALEM  CLOUDY    29   5  36 CALM      30.15S                  
RALEIGH-DURHAM CLOUDY    28   9  44 CALM      30.19R                  
FAYETTEVILLE   PTCLDY    33   9  36 S5        30.20R WCI  29          
$$
 
NCZ011-015-027-028-043-044-047-080-103-010200-
NORTHEASTERN NORTH CAROLINA
  
CITY           SKY/WX    TMP DP  RH WIND       PRES   REMARKS
ROANOKE RAPIDS PTCLDY    28  10  46 CALM      30.20R                  
ROCKY MT-WILSO MOCLDY    26  17  68 CALM      30.21R                  
GREENVILLE     MOCLDY    30  14  51 CALM      30.21R                  
WASHINGTON     CLEAR     30  16  55 CALM      30.22R                  
ELIZABETH CITY MOCLDY    30  14  51 SE6       30.21R WCI  24          
MANTEO         NOT AVBL                                               
CAPE HATTERAS  CLEAR     29  16  58 E3        30.22S                  
$$
 
NCZ078-087-090-091-093-098-101-010200-
SOUTHEASTERN NORTH CAROLINA
  
CITY           SKY/WX    TMP DP  RH WIND       PRES   REMARKS
LUMBERTON      CLEAR     28  17  63 CALM      30.22R                  
GOLDSBORO      MOCLDY    30  10  43 CALM      30.21R                  
KINSTON        CLEAR     27  23  86 CALM      30.22R                  
KENANSVILLE    PTCLDY    27  23  86 CALM      30.22S                  
NEW BERN       CLEAR     27  17  66 S3        30.23R                  
CHERRY POINT   PTCLDY    29  16  58 CALM      30.23R                  
BEAUFORT       CLEAR     32  15  49 CALM      30.23R                  
JACKSONVILLE   PTCLDY    27  18  69 CALM      30.23R                  
WILMINGTON     PTCLDY    32  18  56 CALM      30.21S                  
$$